Volver al catálogo

STARLINK-5639

ActivoComunicacionesVLEO
NORAD 55365·PAYLOAD·🇺🇸 United States

Lanzado Jan 26, 2023 desde Cape Canaveral Space Force Station

Loading…

Próximos Pases (próximas 24 horas)

TLE

ActualizadoSource: CelesTrak SupGP

Época: Sep 14, 2026, 22:03 UTC

1 55365C 23013AL  26257.91923611 -.00032904  00000+0 -11917-2 0  2574
2 55365  43.0016 332.6492 0001450 270.2832 172.4355 15.27596555    11

Sigue STARLINK-5639 en tiempo real con AllMySat

Download on the App Store